Other Public Products
Issued by NWS Grand Forks, ND

Home | Current Version | Previous Version | Text Only | Print | Product List | Glossary On
Versions: 1 2 3 4 5 6 7 8 9 10 11 12 13 14 15 16 17 18 19 20 21 22 23 24 25 26 27 28 29 30 31 32 33 34 35 36 37 38 39 40 41 42 43 44 45 46 47 48 49 50
000
FPUS83 KFGF 300131
OPUFGF
PRAIRIE TO PINES WEATHER ROUNDUP
NATIONAL WEATHER SERVICE EASTERN NORTH DAKOTA/GRAND FORKS ND
800 PM CDT THU SEP 29 2016

 **SATELLITE DATA USED TO AUGMENT SKY COVER AT AUTOMATED STATIONS**
 *****  WEATHER ACROSS EASTERN NORTH DAKOTA  *****

CITY           SKY/WX    TMP DP  RH WIND       PRES   REMARKS
GRAND FORKS    CLEAR     58  46  64 SE8       30.36S
GRAND FORKS AF CLEAR     56  46  68 SE8       30.36S
GRAND CITY NWS   N/A     55 N/A N/A SE6         N/A
BUXTON           N/A     63  55  75 SE6         N/A
DEVILS LAKE    CLEAR     58  50  75 SE9       30.32F
FARGO          CLEAR     58  45  62 E8        30.37S
WAHPETON ARPT  CLEAR     54  45  71 E7        30.38S
$$

 *****  WEATHER ACROSS CENTRAL AND WESTERN NORTH DAKOTA  *****

CITY           SKY/WX    TMP DP  RH WIND       PRES   REMARKS
JAMESTOWN      CLEAR     56  47  71 SE8       30.32S
BISMARCK       CLEAR     58  45  62 SE12      30.25S
MINOT          CLEAR     63  47  55 SE14      30.22S
MINOT AFB      CLEAR     59  47  64 SE12      30.21S
GARRISON         N/A     61  47  59 SE9       30.22S
WILLISTON      CLEAR     66  45  46 E6        30.13S
DICKINSON      CLEAR     63  42  46 SE17      30.15S
HETTINGER      CLEAR     65  43  44 SE15G23   30.18F
$$

 *****  OTHER OBSERVATIONS NORTHEAST NORTH DAKOTA  *****

CITY           SKY/WX    TMP DP  RH WIND       PRES   REMARKS
WALHALLA       FAIR      50  46  87 SE7       30.36S
LANGDON        FAIR      52  48  87 SE12      30.34F
CAVALIER       FAIR      55  48  76 SE5       30.36S
GRAFTON        FAIR      55  50  82 SE8       30.38S
CANDO          FAIR      55  48  76 SE12      30.33S
FORT TOTTEN    NOT AVBL
ROLLA          FAIR      54  46  76 S9        30.32R
RUGBY          FAIR      57  46  67 SE8       30.29R
 ***** THE ABOVE OBSERVATIONS ARE NON NWS ARE NOT QUALITY
        CONTROLLED AND MAY MIS-REPORT RAIN FOR SNOW...
$$

 *****  OTHER OBSERVATIONS SOUTHEAST NORTH DAKOTA *****

CITY           SKY/WX    TMP DP  RH WIND       PRES   REMARKS
COOPERSTOWN    FAIR      52  45  76 SE8       30.35S
VALLEY CITY    FAIR      55  46  71 SE9       30.37R
OAKES          NOT AVBL
GWINNER        FAIR      52  46  82 SE7       30.36R
SHEYENNE NWR     N/A     51  44  78 SE6       29.95
BUFFALO          N/A     52  40  62 E8          N/A
WYNDMERE         N/A     55  46  71 E3          N/A
 ***** THE ABOVE OBSERVATIONS ARE NON NWS ARE NOT QUALITY
       CONTROLLED AND MAY MIS-REPORT RAIN FOR SNOW...
$$

  *****  WEATHER ACROSS NORTHERN MINNESOTA  *****

CITY           SKY/WX    TMP DP  RH WIND       PRES   REMARKS
FLAG ISLAND    CLEAR     57  48  72 SE8       30.42S
WARROAD        CLEAR     54  48  82 SE8       30.43S
ROSEAU         HAZE      55  48  76 SE7       30.42R VSB 3/4
HALLOCK        CLEAR     57  48  72 SE7       30.37S
THF RVR FALLS  CLEAR     55  46  71 SE10      30.41S
HALSTAD          N/A     50  43  75 SE7         N/A
FOSSTON        CLEAR     46  39  76 E3        30.42S
BAUDETTE       CLOUDY    56  47  71 SE6       30.45S
WASKISH        CLOUDY    55  48  76 E3        30.44F
CROOKSTON      CLEAR     57  46  67 SE7       30.39S
$$
  *****  WEATHER ACROSS CENTRAL AND WEST MINNESOTA  *****

CITY           SKY/WX    TMP DP  RH WIND       PRES   REMARKS
BEMIDJI        CLOUDY    55  49  81 SE3       30.43S
PARK RAPIDS    CLOUDY    57  43  59 E3        30.42S
WADENA         CLEAR     50  45  81 E5        30.42R
DETROIT LAKES  CLEAR     54  45  71 SE5       30.41F
MOORHEAD       CLEAR     55  45  67 E7        30.39S
FERGUS FALLS   CLEAR     55  46  71 E3        30.41S
ELBOW LAKE     FAIR      54  48  79 SE6       30.40R
MORRIS MN      CLEAR     52  46  82 E7        30.38S
STAPLES        CLEAR     52  46  82 CALM      30.42S
WHEATON        CLEAR     54  46  76 SE6       30.39S
$$
  *****  WEATHER ELSEWHERE ACROSS MINNESOTA  *****

CITY           SKY/WX    TMP DP  RH WIND       PRES   REMARKS
DULUTH         PTCLDY    50  47  89 E6        30.46S
INTRNTL FALLS  CLOUDY    54  49  83 SE6       30.46F
ELY            CLOUDY    54  46  76 NE5       30.48R
CLOQUET        CLEAR     52  46  82 E7        30.45S
BRAINERD       CLEAR     50  49  96 NE3       30.42F
HIBBING        CLOUDY    53  49  86 CALM      30.45F
ALEXANDRIA     CLEAR     53  47  79 E3        30.41F
SAINT CLOUD    CLEAR     53  51  93 CALM      30.40S
MINNEAPOLIS    CLEAR     60  50  69 N6        30.39F
$$

  *****  WEATHER ACROSS SOUTH DAKOTA  *****

CITY           SKY/WX    TMP DP  RH WIND       PRES   REMARKS
SIOUX FALLS    CLEAR     58  48  69 E3        30.34S
BROOKINGS      CLEAR     59  48  67 E7        30.35S
WATERTOWN      CLEAR     59  47  64 E5        30.35F
HURON          CLEAR     60  46  59 SE6       30.32R
SISSETON         N/A     55  46  71 SE6       30.35S
ABERDEEN       CLEAR     57  43  59 E5        30.33R
MITCHELL       CLEAR     57  46  66 SE6       30.33S
PIERRE         CLEAR     62  44  51 SE10      30.24S
MOBRIDGE       CLEAR     64  41  42 SE14      30.23S
RAPID CITY     CLEAR     68  45  43 S9        30.17S
$$

  *****  SOME WEATHER IN NEARBY STATES *****

CITY           SKY/WX    TMP DP  RH WIND       PRES   REMARKS
GLASGOW MT     CLEAR     68  47  46 SE9       30.00S
GREAT FALLS MT CLEAR     66  48  52 NE9       30.01S
CHEYENNE WY    CLOUDY    69  37  30 E5        30.29S
SCOTTSBLUFF NE CLEAR     69  44  40 SE16      30.20S
OMAHA NE       CLEAR     61  50  67 CALM      30.32S
DES MOINES IA  CLEAR     67  47  48 N8        30.29S
DAVENPORT IA   CLOUDY    66  53  63 NE12      30.26S
CHICAGO IL     LGT RAIN  63  57  81 NE10      30.23R
EAU CLAIRE WI  CLEAR     57  51  80 N6        30.37S
LA CROSSE WI   CLEAR     61  54  77 N6        30.34S
$$

  *****  SOME NATIONAL WEATHER *****

CITY           SKY/WX    TMP DP  RH WIND       PRES   REMARKS
LA GUARDIA NY  CLOUDY    64  53  67 E18G26    30.37R
RALEIGH NC     MOCLDY    73  70  90 VRB7      30.03R
ATLANTA GA     PTCLDY    67  45  45 NW12      30.04R
NEW ORLEANS LA PTCLDY    80  58  46 N14       30.06R
OKLAHOMA CITY  MOCLDY    66  47  50 N7        30.27S
ALBUQUERQUE NM LGT RAIN  64  58  80 N12       30.41R
SALT LAKE CITY PTCLDY    72  51  47 NW3       30.16S
LOS ANGELES CA PTCLDY    75  58  55 SW12      29.98S
BOISE ID       PTCLDY    86  37  17 S7        29.94F
SEATTLE WA     MOCLDY    62  41  46 CALM      30.08S
$$

*** WEATHER ACROSS MANITOBA...SASKATCHEWAN AND ONTARIO ***
                ***ONTARIO***

CITY           SKY/WX    TMP DP  RH WIND       PRES   REMARKS
GERALDTON      CLEAR     52  50  93 S2        30.51S
THUNDER BAY    PTCLDY    52  50  93 N3        30.48S
SIOUX LOOKOUT  CLOUDY    50  48  93 S2        30.50S
TORONTO        LGT RAIN  59  55  88 NE8       30.34S
BIG TROUT LK   CLOUDY    54  48  82 VRB2      30.44S
PICKLE LAKE    PTCLDY    50  45  81 S6        30.49S
DRYDEN         CLOUDY    52  46  82 SE6       30.48S
KENORA         PTCLDY    52  45  76 SE6       30.45S
$$
                *** MANITOBA***

CITY           SKY/WX    TMP DP  RH WIND       PRES   REMARKS
BRANDON        PTCLDY    57  48  72 SE8       30.28S
DAUPHIN        CLEAR     59  48  67 SE6       30.23S
ISLAND LAKE    MOCLDY    55  52  88 SE6       30.39S
PILOT MOUND      N/A     54  46  76 SE12        N/A
THE PAS        MOCLDY    54  50  87 SE8       30.22F
THOMPSON       MOCLDY    54  45  71 SE3       30.30S
WINNIPEG       PTCLDY    55  46  71 S7        30.37S
LYNN LAKE      CLEAR     50  37  62 S5        30.25R
CHURCHILL      PTCLDY    52  37  58 SW13      30.21S
GILLAM         PTCLDY    52  37  58 S6        30.33F
$$
                ***SASKATCHEWAN***

CITY           SKY/WX    TMP DP  RH WIND       PRES   REMARKS
ESTEVAN        PTCLDY    61  46  59 SE9       30.17R
KINDERSLEY     PTCLDY    52  48  87 NE9       30.08F
LLOYDMINSTER   MOCLDY    55  41  58 NE6       30.12F
PRINCE ALBERT  CLOUDY    52  48  87 E6        30.15R
REGINA         PTCLDY    68  45  42 SE21G29   30.08S
YORKTON        CLEAR     63  48  59 SE15G21   30.16R   C1F1C2F2C3F3C4F4C5F5C6F6C7F7C8F8C9F9CaFaCbFbCcFcCdFdCe!


USA.gov is the U.S. government's official web portal to all federal, state and local government web resources and services.